Home   Weather   Fushun   Past weeks

Flag for China Past Weather in Fushun, Liaoning, China — Yesterday and Last 2 Weeks

Now
1 °F

Clear.


Feels Like: -6 °F
Forecast: -8 / 20 °F
Wind: 3 mph from Southeast

Location: Shenyang / Taoxian

Current Time: Jan 24, 2017 at 3:24:38 am

Latest Report: Jan 24, 2017 at 2:30 am


Visibility: 5 mi

Pressure: 30.60 "Hg

Humidity: 71%

Dew Point: -6 °F

Location of FushunLocation

Past Weather in Fushun — Graph

°F

Fushun Temperature Yesterday

Maximum temperature yesterday: 18 °F (at 2:30 pm)
Minimum temperature yesterday: -8 °F (at 5:00 am)
Average temperature yesterday: 4 °F

High & Low Weather Summary for the Past Weeks

 TemperatureHumidityPressure
High25 °F (Jan 16, 2:30 pm)92% (Jan 9, 2:00 am)30.60 "Hg (Jan 9, 2:00 am)
Low-8 °F (Jan 23, 5:00 am)31% (Jan 10, 10:30 am)30.07 "Hg (Jan 12, 7:00 pm)
Average10 °F62%30.38 "Hg
* Reported Jan 9 2:00 am — Jan 24 2:00 am, Fushun, Weather by CustomWeather, © 2017

Note: Actual official high and low records may vary slightly from our data, if they occured in-between our weather recording intervals... More about our weather records

Advertising

Fushun Weather History for the Previous 24 Hours

Scroll right to see more
 ConditionsComfort  
Time TempWeatherWind HumidityBarometerVisibility
2:00 am
Tue, Jan 24
1 °FClear.3 mph71%30.60 "Hg5 mi
1:30 am1 °FClear.3 mph71%30.60 "Hg5 mi
1:00 am1 °FClear.3 mph71%30.60 "Hg5 mi
12:30 am1 °FClear.3 mph71%30.60 "Hg5 mi
12:00 am1 °FClear.1 mph71%30.60 "Hg4 mi
11:30 pm
Mon, Jan 23
1 °FClear.1 mph65%30.60 "Hg4 mi
11:00 pm1 °FClear.1 mph71%30.60 "Hg4 mi
10:30 pm1 °FClear.1 mph71%30.60 "Hg4 mi
10:00 pm1 °FClear.3 mph71%30.57 "Hg4 mi
9:30 pm1 °FClear.1 mph71%30.57 "Hg4 mi
9:00 pm5 °FClear.3 mph66%30.57 "Hg4 mi
8:30 pm5 °FClear.3 mph60%30.57 "Hg4 mi
8:00 pm7 °FClear.3 mph61%30.57 "Hg4 mi
7:30 pm9 °FClear.3 mph56%30.57 "Hg4 mi
7:00 pm9 °FClear.3 mph56%30.57 "Hg4 mi
6:30 pm9 °FClear.1 mph61%30.57 "Hg4 mi
6:00 pm9 °FClear.3 mph61%30.57 "Hg4 mi
5:30 pm10 °FClear.3 mph56%30.54 "Hg4 mi
5:00 pm12 °FClear.3 mph52%30.54 "Hg4 mi
4:30 pm14 °FSunny.3 mph48%30.54 "Hg10 mi
4:00 pm16 °FSunny.6 mph41%30.54 "Hg10 mi
3:30 pm18 °FSunny.6 mph35%30.54 "Hg10 mi
3:00 pm18 °FSunny.6 mph35%30.54 "Hg10 mi
2:30 pm18 °FPassing clouds.6 mph38%30.54 "HgN/A
2:00 pm16 °FClear.6 mph45%30.54 "Hg5 mi
1:30 pm14 °FClear.6 mph48%30.57 "Hg4 mi
1:00 pm14 °FClear.8 mph48%30.57 "Hg4 mi
12:30 pm14 °FClear.6 mph48%30.57 "Hg4 mi
12:00 pm14 °FClear.6 mph48%30.57 "Hg3 mi
11:30 am12 °FClear.3 mph52%30.60 "Hg3 mi
11:00 am10 °FClear.3 mph56%30.60 "Hg2 mi
10:30 am9 °FClear.3 mph66%30.60 "Hg2 mi
10:00 am5 °FClear.3 mph78%30.60 "Hg2 mi
9:30 am3 °FClear.1 mph78%30.60 "Hg2 mi
9:00 am1 °FClear.1 mph78%30.60 "Hg2 mi
8:30 am0 °FClear.1 mph78%30.60 "Hg2 mi
8:00 am-2 °FClear.1 mph77%30.60 "Hg2 mi
7:30 am-6 °FClear.1 mph84%30.60 "Hg2 mi
7:00 am-6 °FClear.3 mph84%30.57 "Hg3 mi
6:30 am-6 °FClear.1 mph77%30.57 "Hg4 mi
6:00 am-6 °FClear.1 mph84%30.57 "Hg4 mi
5:30 am-6 °FClear.1 mph84%30.57 "Hg4 mi
5:00 am-8 °FClear.1 mph84%30.57 "Hg4 mi
4:30 am-6 °FClear.1 mph84%30.57 "Hg4 mi
4:00 am-6 °FClear.1 mph84%30.57 "Hg4 mi
3:30 am-4 °FClear.1 mph84%30.57 "Hg4 mi
3:00 am-4 °FClear.1 mph84%30.57 "Hg4 mi
Weather by CustomWeather, © 2017

See weather overviewHow to use our weather pages